This demonstration page uses our WeatherBlox Daily Observations layout. Learn more.

Left ArrowRight Arrow

Hourly Observations for February 7, 2016

Temp ( °F °C ) Dew Point ( °F °C ) Humidity (%) Winds ( mph kmh ) Pressure ( in mb ) Visibility ( mi km ) Precip ( " mm )
12:54 am 00:54 Clear 36 2.2 27 -2.8 70 70 W 6 9 29.99 1016 10 16 0.00 0.00
1:54 am 01:54 Clear 32 0 26 -3.3 79 79 SSW 5 7 29.98 1015 10 16 0.00 0.00
2:54 am 02:54 Clear 31 -0.6 25 -3.9 79 79 WSW 3 6 30.00 1016 10 16 0.00 0.00
3:54 am 03:54 Clear 36 2.2 26 -3.3 67 67 NW 9 15 30.00 1016 10 16 0.00 0.00
4:54 am 04:54 Clear 38 3.3 26 -3.3 62 62 NW 10 17 30.01 1016 10 16 0.00 0.00
5:54 am 05:54 Clear 36 2.2 25 -3.9 64 64 WNW 6 9 30.02 1017 10 16 0.00 0.00
6:54 am 06:54 Clear 35 1.7 24 -4.4 64 64 W 6 9 30.03 1017 10 16 0.00 0.00
7:54 am 07:54 Sunny 37 2.8 24 -4.4 59 59 NW 14 22 30.06 1018 10 16 0.00 0.00
8:54 am 08:54 Sunny 39 3.9 25 -3.9 57 57 NW 18 30 30.07 1018 10 16 0.00 0.00
9:54 am 09:54 Sunny 42 5.6 25 -3.9 51 51 WNW 17 28 30.09 1019 10 16 0.00 0.00
10:54 am 10:54 Sunny 42 5.6 26 -3.3 53 53 WNW 21 33 30.10 1019 10 16 0.00 0.00
11:54 am 11:54 Sunny 43 6.1 26 -3.3 51 51 WNW 18 30 30.09 1019 10 16 0.00 0.00
12:54 pm 12:54 Sunny 43 6.1 26 -3.3 51 51 W 16 26 30.06 1018 10 16 0.00 0.00
1:54 pm 13:54 Mostly Sunny 44 6.7 24 -4.4 45 45 W 20 31 30.03 1017 10 16 0.00 0.00
2:54 pm 14:54 Cloudy 42 5.6 22 -5.6 45 45 NW 22 35 30.03 1017 10 16 0.00 0.00
3:54 pm 15:54 Cloudy 39 3.9 26 -3.3 60 60 NW 21 33 30.06 1018 10 16 0.00 0.00
4:54 pm 16:54 Cloudy 37 2.8 28 -2.2 70 70 WNW 25 41 30.06 1018 10 16 0.00 0.03
5:54 pm 17:54 Cloudy 37 2.8 28 -2.2 70 70 WNW 18 30 30.06 1018 10 16 0.00 0.03
6:54 pm 18:54 Cloudy 37 2.8 28 -2.2 70 70 NW 14 22 30.07 1018 9 14 0.00 0.03
7:54 pm 19:54 Cloudy 37 2.8 27 -2.8 67 67 NNW 14 22 30.07 1018 10 16 0.00 0.00
8:54 pm 20:54 Cloudy 36 2.2 28 -2.2 73 73 NW 8 13 30.08 1019 10 16 0.00 0.00
9:54 pm 21:54 Cloudy 36 2.2 22 -5.6 57 57 NNW 29 46 30.07 1018 10 16 0.00 0.03
10:54 pm 22:54 Cloudy 36 2.2 22 -5.6 57 57 NNW 25 41 30.08 1019 10 16 0.00 0.00
11:54 pm 23:54 Cloudy 35 1.7 20 -6.7 54 54 NNW 25 41 30.09 1019 10 16 0.00 0.00

Powered by AerisWeather